Location: *
(35.8942°N, 23.3025°E)
Time: 23:45:24
(UTC+00:00)

Geosat - Pass Details

Date: 21 September 2021
Orbit: 763 x 765 km, 108.0° (Epoch: 22 October)

Event Time Altitude Azimuth Distance (km) Brightness Sun altitude
Rises 03:27:11 0° 165° (SSE) 3,211 7.3 -10.3°
Reaches altitude 10° 03:29:30 10° 170° (S) 2,289 6.5 -9.8°
Maximum altitude 03:34:23 55° 248° (WSW) 914 4.1 -8.8°
Drops below altitude 10° 03:39:18 10° 326° (NW) 2,304 6.2 -7.8°
Sets 03:41:39 0° 331° (NNW) 3,235 7.0 -7.4°
